カタログに戻る

ADEOS 2

運用中科学SSO
NORAD 27597·PAYLOAD·🇯🇵 Japan

打ち上げ Dec 14, 2002 から Tanegashima Space Center

Loading…

次のパス (今後24時間)

TLE

最新Source: Space-Track

元期: Sep 14, 2026, 14:22 UTC

1 27597U 02056A   26257.59881740  .00000167  00000-0  83407-4 0  9997
2 27597  98.7983 217.6608 0001603 122.2315 237.9022 14.29388388237283

AllMySatでADEOS 2をリアルタイム追跡

Download on the App Store